SCP
0 0 0 0 0 0 0 0 0 0 -0 -0 -0 -0 0 0 0 0 0 -0 -0 0 0 0 0 0 0 0 -0 -0 -0 -0 -0 -0 0 0 0 0 0 0 0 0 0 -0 -0 -0 0 0 -0
0 0 0 0 0 0 0 0 0 0 0 0 0 0 0 0 0 0 0 -0 -0 -0 -0 0 0 0 0 -0 -0 0 0 0 0 0 0 0 0 0 0 0 0 0 0 0 0 0 0 0 0
0 0 0 0 0 0 0 0 0 0 0 0 0 0 0 -0 0 -0 0 -0 -0 -0 -0 0 0 0 0 0 0 0 0 0 0 0 0 0 0 0 0 0 -0 -0 -0 0 0 0 0 -0 0
0 0 0 0 0 0 0 0 0 0 0 0 0 0 0 0 0 0 0 -0 -0 0 0 0 0 0 0 0 0 0 0 0 -0 -0 -0 -0 0 0 0 0 -0 -0 -0 -0 -0 -0 0 0 0
0 0 0 0 0 0 0 0 0 0 0 0 0 0 0 0 0 0 0 0 0 0 0 0 0 0 0 0 0 0 0 0 0 0 0 0 0 0 0 0 -0 -0 -0 -0 -0 -0 -0 0 0
0 0 0 0 0 0 0 0 0 0 0 0 0 0 0 0 0 0 0 0 0 0 0 0 0 0 0 0 0 0 0 0 0 0 0 0 0 0 0 -0 -0 -0 -0 -0 -0 -0 -0 -0 -0
0 0 0 0 0 0 0 0 0 0 0 0 0 0 0 0 0 0 0 0 0 0 0 0 0 0 0 0 0 0 0 0 0 0 0 0 0 0 0 0 -0 -0 -0 -0 0 0 -0 -0 -0
0 0 0 0 0 0 0 0 0 0 0 0 0 0 0 0 0 0 0 0 0 0 0 0 0 0 0 0 0 0 0 0 0 0 0 0 0 0 0 0 0 0 0 0 0 0 0 0 -0
0 0 0 0 0 0 0 0 0 0 0 0 0 0 0 0 0 0 0 0 0 0 0 0 0 0 0 0 0 0 0 0 0 0 0 0 0 0 0 0 0 0 0 0 0 0 0 0 0
0 0 0 0 0 0 0 0 0 0 0 0 0 0 0 0 0 0 0 0 0 0 0 0 0 0 0 0 0 0 0 0 0 0 0 0 0 0 0 0 0 0 0 0 0 0 0 0 0
0 0 0 0 0 0 0 0 0 0 0 0 0 0 0 0 0 0 0 0 0 0 0 0 0 0 0 0 0 0 0 0 0 0 0 0 0 0 0 0 0 0 0 0 0 0 0 0 0
0 0 0 0 0 0 0 0 0 0 0 0 0 0 0 0 0 0 0 0 0 0 0 0 0 0 0 0 0 0 0 0 0 0 0 0 0 0 0 0 0 0 0 0 0 0 0 0 0
0 0 0 0 0 0 0 0 0 0 0 0 0 0 0 0 0 0 0 0 0 0 0 0 0 0 0 0 0 0 0 0 0 0 0 0 0 0 0 0 0 0 0 0 0 0 0 0 0
0 0 0 0 0 0 0 0 0 0 0 0 0 0 0 0 0 0 0 0 0 0 0 0 0 0 0 0 0 0 0 0 0 0 0 0 0 0 0 0 0 0 0 0 0 0 0 0 0
0 0 0 0 0 0 0 0 0 0 0 0 0 0 0 0 0 0 0 0 0 0 0 0 0 0 0 0 0 0 0 0 0 0 0 0 0 0 0 0 0 0 0 0 0 0 0 0 0
0 0 0 0 0 0 0 0 0 0 0 0 0 0 0 0 0 0 0 0 0 0 0 0 0 0 0 0 0 0 0 0 0 0 0 0 0 0 0 0 0 0 0 0 0 0 0 0 0
0 0 0 0 0 0 0 0 0 0 0 0 0 0 0 0 0 0 0 0 0 0 0 0 0 0 0 0 0 0 0 0 0 0 0 0 0 0 0 0 0 0 0 0 0 0 0 0 0
0 0 0 0 0 0 0 0 0 0 0 0 0 0 0 0 0 0 0 0 0 0 0 0 0 0 0 0 0 0 0 0 0 0 0 0 0 0 0 0 0 0 0 0 0 0 0 0 0
0 0 0 0 0 0 0 0 0 0 0 0 0 0 0 0 0 0 0 0 0 0 0 0 0 0 0 0 0 0 0 0 0 0 0 0 0 0 0 0 0 0 0 0 0 0 0 0 0
0 0 0 0 0 0 0 0 0 0 0 0 0 0 0 0 0 0 0 0 0 0 0 0 0 0 0 0 0 0 0 0 0 0 0 0 0 0 0 0 0 0 0 0 0 0 0 0 0
0 0 0 0 0 0 0 -0 0 0 0 0 0 0 0 0 0 0 0 0 0 0 0 0 0 0 0 0 0 0 0 0 0 0 0 0 0 0 0 0 0 0 0 0 0 0 0 0 0
0 0 0 0 0 0 0 -0 0 0 0 0 0 0 0 0 0 0 0 0 0 0 0 0 0 0 0 0 0 0 0 0 0 0 0 0 0 0 0 0 0 0 0 0 0 0 0 0 0
0 0 0 0 0 0 0 0 -0 0 0 0 0 0 0 0 0 0 0 0 0 0 0 0 0 0 0 0 0 0 0 0 0 0 0 0 0 0 0 0 0 0 0 0 0 0 0 0 0
0 0 0 0 0 0 0 0 -0 0 0 0 0 0 0 0 0 0 0 0 0 0 0 0 0 0 0 0 0 0 0 0 0 0 0 0 0 0 0 0 0 0 0 0 0 0 0 0 0
0 0 0 0 0 0 0 0 0 0 0 0 0 0 0 0 0 0 0 0 0 0 0 0 0 0 0 0 0 0 0 0 0 0 0 0 0 0 0 0 0 0 0 0 0 0 0 0 0
0 0 0 0 0 0 0 0 0 0 0 0 0 0 0 0 0 0 0 0 0 0 0 0 0 0 0 0 0 0 0 0 0 0 0 0 0 0 0 0 0 0 0 0 0 0 0 0 0
0 0 0 0 0 0 0 0 0 0 0 0 0 0 0 0 0 0 0 0 0 0 0 0 0 0 0 0 0 0 0 0 0 0 0 0 0 0 0 0 0 0 0 0 0 0 0 0 0
0 0 0 0 0 0 0 0 0 0 0 0 0 0 0 0 0 0 0 0 0 0 0 0 0 0 0 0 0 0 0 0 0 0 0 0 0 0 0 0 0 0 0 0 0 0 0 0 0
0 0 0 0 0 0 0 0 0 0 0 0 0 0 -0 -0 -0 0 0 0 0 0 0 0 0 0 0 0 0 0 0 0 0 0 0 0 0 0 0 0 0 0 0 0 0 0 0 0 0
0 0 0 0 0 0 0 0 0 0 0 0 0 0 0 -0 -0 -0 -0 0 0 0 0 0 0 0 0 0 0 0 0 0 0 0 0 0 0 0 0 0 0 0 0 0 0 0 0 0 0
Wind_Speed_500mb
4 3 4 4 7 9 1 6 5 8 3 6 17 10 9 5 6 6 22 28 19 13 4 4 5 8 8 10 14 16 18 18 18 17 17 15 16 13 13 13 11 11 10 11 13 14 10 9 8
3 4 5 6 8 6 7 5 10 11 9 26 23 19 5 2 8 14 22 31 22 13 6 2 5 9 12 14 16 19 19 18 17 16 15 16 15 14 11 10 10 9 8 8 9 9 11 10 7
3 4 2 8 6 7 9 7 9 16 36 11 9 5 9 10 12 26 26 32 21 12 9 6 9 13 17 21 22 20 17 15 14 14 14 13 12 12 11 10 9 8 7 6 7 8 8 8 8
1 2 8 8 5 6 6 9 14 28 14 8 12 7 10 20 19 22 29 26 21 13 7 9 17 21 24 26 24 19 15 15 14 11 10 7 8 8 7 8 9 8 7 6 6 8 9 8 7
1 2 7 5 5 5 5 10 41 13 6 12 19 12 8 25 24 26 31 26 20 13 9 14 23 28 29 27 23 18 16 14 8 6 5 7 8 6 5 2 2 4 9 8 7 9 11 10 8
1 4 7 4 7 5 6 18 34 15 11 14 9 19 12 22 30 33 33 28 22 15 14 23 29 32 31 27 23 19 14 9 5 2 4 6 8 8 10 10 8 9 7 8 12 12 8 11 12
6 7 8 9 6 6 8 24 16 20 15 14 10 15 10 31 34 36 35 29 24 18 23 33 35 36 33 29 25 20 12 6 2 5 8 9 12 14 14 17 17 17 14 11 12 10 9 11 15
3 9 7 6 8 10 7 21 13 28 17 13 19 13 12 40 43 41 37 32 27 24 31 37 40 39 36 33 27 20 12 5 4 7 10 11 13 15 15 18 18 20 15 11 10 9 9 8 11
5 7 6 10 13 11 12 13 16 15 14 27 31 23 17 35 48 48 46 42 37 35 38 41 43 43 41 37 30 21 13 8 7 7 9 11 13 16 17 18 19 18 17 15 13 12 8 6 6
7 7 16 11 10 9 10 21 27 13 17 23 33 41 28 41 54 58 59 57 51 46 47 45 47 47 45 41 34 25 17 12 10 8 9 13 16 17 17 17 18 15 14 14 15 15 14 13 11
7 11 8 9 19 14 8 14 22 20 9 35 50 59 44 49 60 62 61 59 55 49 51 48 50 49 48 43 37 28 21 16 14 12 12 16 18 20 19 16 15 13 11 11 11 12 13 13 15
4 15 13 7 14 8 8 8 17 44 51 33 58 47 55 60 67 69 67 63 61 58 55 52 51 52 50 46 41 33 27 23 19 17 16 19 21 21 20 18 15 13 10 9 9 11 12 12 11
7 8 13 28 22 21 15 22 26 40 63 56 39 41 53 66 71 73 69 64 63 63 59 58 55 54 53 51 46 39 34 30 26 22 21 23 22 22 22 21 19 17 15 12 11 11 12 14 14
8 14 25 18 24 17 11 17 15 18 50 58 56 55 55 66 74 78 81 75 71 66 63 60 60 58 56 56 52 46 42 38 32 28 25 25 23 23 23 23 21 19 17 16 15 15 14 13 15
14 11 13 12 11 12 6 20 31 53 59 51 55 65 63 67 75 85 81 80 76 75 66 66 62 61 61 60 58 54 50 46 39 33 29 26 25 25 25 25 22 20 18 16 16 18 18 17 16
8 4 6 7 7 10 17 29 26 31 49 70 72 66 68 73 78 80 86 83 83 79 74 69 69 66 65 63 62 59 55 51 43 37 32 29 26 27 27 27 24 22 19 17 17 17 18 20 20
11 10 10 17 21 5 15 17 17 22 34 57 66 78 77 78 83 90 88 86 87 83 82 79 76 73 70 68 67 64 60 55 47 41 35 31 29 28 28 27 25 23 21 19 19 21 21 22 23
13 10 10 12 6 5 13 31 35 49 32 40 56 65 75 85 90 87 91 92 90 90 88 85 81 78 73 70 69 67 63 59 52 45 38 34 31 30 29 28 26 24 22 21 20 21 22 25 30
4 6 13 11 9 9 16 33 36 55 34 52 70 71 77 87 83 87 89 94 96 98 97 95 93 86 82 80 77 74 71 63 56 48 42 38 34 33 32 29 26 25 22 20 21 22 24 25 32
13 15 25 16 14 14 19 42 33 32 32 55 70 79 93 95 91 91 88 92 101 102 100 98 100 96 91 86 80 75 68 63 54 49 46 41 38 35 33 30 28 25 22 22 22 23 25 26 29
16 14 25 27 20 14 14 53 25 22 45 45 67 87 95 95 100 99 98 98 96 108 109 106 103 103 98 90 82 77 68 63 61 60 53 45 40 38 35 32 30 27 23 22 22 23 23 26 25
19 21 28 20 4 18 7 35 7 13 25 14 50 72 87 94 100 102 95 93 98 104 113 113 108 108 103 96 90 86 81 75 69 59 48 45 43 41 37 34 31 27 25 24 23 22 22 23 25
20 13 14 12 10 9 10 7 34 8 10 18 23 63 72 78 81 88 90 90 93 93 106 116 114 112 108 102 96 87 80 72 62 54 50 50 47 43 39 35 31 28 27 25 24 23 21 21 24
2 3 2 8 8 13 17 15 54 10 16 14 20 47 61 66 65 64 68 67 76 81 92 108 120 116 114 107 98 92 83 74 69 62 56 53 49 45 40 36 32 30 28 26 25 23 23 23 27
8 9 9 7 3 22 19 18 55 10 4 11 20 61 70 66 70 72 57 60 69 81 87 94 111 124 121 110 101 94 84 76 72 64 57 54 51 47 41 37 33 30 27 25 25 26 27 28 33
6 15 10 12 9 14 5 18 18 5 18 24 38 51 61 69 79 81 67 62 58 61 74 84 100 120 120 109 103 94 84 79 73 64 56 52 48 39 36 36 33 29 28 26 27 29 31 34 39
6 5 12 22 43 24 28 34 28 20 21 23 45 63 68 73 79 80 74 57 52 52 63 78 89 100 110 110 103 94 86 81 73 63 56 50 44 40 39 37 33 29 29 28 30 33 36 38 39
9 6 12 6 18 39 23 15 24 27 32 37 41 57 71 83 91 90 83 56 49 55 60 69 77 84 95 107 104 94 86 79 70 62 59 52 45 41 39 37 33 31 31 31 33 36 36 40 43
24 26 14 12 16 17 21 18 6 15 22 36 39 65 57 69 82 90 78 57 48 47 60 65 71 79 89 100 102 95 87 78 69 65 58 51 45 42 38 35 33 32 32 31 35 36 38 44 49
29 36 13 8 13 11 14 19 11 36 50 69 69 71 102 92 71 85 85 71 67 52 51 65 73 76 80 88 98 96 82 76 71 67 60 51 48 43 35 33 34 33 32 32 34 37 41 48 51
Wind_Direction_500mb
353 80 126 126 57 66 161 217 143 150 198 187 144 169 181 102 167 200 160 170 161 174 141 72 101 136 129 127 123 112 112 115 110 107 105 106 107 107 107 101 91 74 73 79 98 122 125 101 87
4 111 123 96 86 67 263 240 191 195 151 128 116 120 121 224 162 152 148 168 165 171 155 149 154 152 154 143 133 132 131 127 123 117 110 107 109 107 114 116 118 115 105 94 103 112 132 131 120
43 100 150 94 107 175 211 208 164 152 139 145 132 183 164 172 175 160 154 153 163 175 178 209 171 163 159 155 156 153 141 129 121 123 121 112 105 112 117 118 121 125 130 134 131 133 142 144 154
13 119 63 86 221 244 197 192 158 149 197 218 192 152 164 166 173 176 165 166 172 176 220 221 175 167 169 169 169 158 151 143 142 135 108 114 107 101 110 137 141 153 158 168 174 169 155 164 168
342 90 61 78 266 265 253 183 163 160 187 178 175 181 193 185 186 183 182 181 189 205 225 193 179 177 177 178 174 166 160 157 153 95 67 28 31 29 11 1 247 201 208 189 194 197 199 172 171
195 97 76 205 250 263 255 184 174 193 181 172 192 154 184 193 194 186 190 192 197 223 224 189 186 182 185 188 181 173 166 155 121 53 16 347 343 344 341 323 313 291 280 251 245 241 219 217 195
115 90 198 184 245 305 214 173 186 190 181 217 194 149 207 192 185 192 195 201 210 214 204 191 187 189 194 194 186 180 176 173 245 309 321 323 321 325 321 317 322 319 310 297 278 271 247 231 225
107 91 134 216 201 252 207 177 206 189 205 194 193 204 211 201 189 191 196 203 212 206 203 200 197 198 202 200 190 188 190 208 281 310 316 316 316 315 313 310 315 313 312 309 296 291 272 262 225
119 65 220 218 162 234 187 188 194 212 192 191 202 224 229 195 192 194 197 201 207 204 204 205 205 202 204 202 196 195 207 233 272 303 318 319 320 319 315 311 312 301 304 307 305 306 299 283 278
111 131 218 211 198 218 217 203 189 176 204 215 223 226 221 201 199 203 208 211 212 213 206 206 208 207 206 203 203 206 217 237 259 284 310 324 324 321 317 314 312 311 305 301 301 303 299 289 271
162 198 211 249 233 242 234 225 194 177 221 218 224 230 217 209 208 212 216 224 225 219 212 209 209 211 211 210 212 217 226 240 260 276 300 316 322 322 318 315 313 307 306 304 305 304 296 283 273
250 240 221 264 238 233 223 218 205 208 222 242 242 248 226 215 215 218 220 223 223 222 218 214 214 215 214 214 216 223 233 239 252 265 290 310 315 311 306 303 297 294 293 289 292 301 310 312 303
218 258 249 244 256 255 256 238 234 237 238 242 245 240 233 227 227 227 230 228 225 223 220 219 219 218 217 219 220 225 236 241 248 261 283 297 302 301 299 296 292 289 289 289 290 294 297 301 303
306 279 266 275 263 254 252 264 254 252 247 248 249 248 240 236 232 228 224 226 227 226 226 224 224 224 223 223 225 233 241 243 248 258 273 286 293 295 293 291 287 283 282 286 293 296 296 297 303
301 322 319 253 239 244 240 286 238 253 256 254 247 247 244 240 232 233 232 228 232 231 228 227 228 228 228 230 234 238 243 243 246 255 268 279 287 291 291 288 281 277 277 284 292 298 305 308 305
356 29 313 300 185 251 160 261 271 271 253 250 249 247 240 239 240 240 232 231 230 230 231 229 229 230 232 235 238 240 240 241 245 253 264 273 281 285 286 284 279 276 275 279 286 288 294 302 305
2 264 242 311 208 162 193 262 271 259 246 251 252 248 244 244 240 237 235 236 235 234 232 230 230 232 232 234 236 237 237 240 243 250 259 267 274 277 278 277 274 271 272 278 286 294 304 311 311
224 236 261 254 327 232 258 257 270 267 271 267 266 259 251 248 248 246 243 239 238 235 234 233 233 231 231 232 231 231 233 237 241 248 255 260 266 270 270 269 265 264 268 280 292 301 313 320 319
273 240 269 262 276 256 248 258 266 274 249 254 260 263 259 253 255 250 245 240 237 235 233 232 231 231 229 229 227 228 234 237 241 246 251 255 259 262 264 265 263 262 265 280 292 304 313 324 324
257 265 270 278 244 201 270 270 255 261 250 245 252 258 261 262 258 252 248 240 236 236 235 231 229 230 233 233 234 235 238 238 241 244 247 250 253 255 258 261 261 262 266 282 292 302 313 324 330
241 245 264 262 317 237 283 280 255 239 257 248 247 255 262 263 264 260 253 248 239 235 236 233 229 230 231 232 230 231 230 232 233 237 243 248 249 250 253 254 255 256 262 279 287 295 307 317 327
268 219 242 256 171 275 118 292 282 282 256 245 240 248 258 263 264 264 260 256 251 243 237 235 232 231 230 230 229 232 235 237 240 244 245 244 244 246 248 248 250 251 263 274 277 286 298 307 318
235 203 206 214 210 342 183 250 288 45 277 265 264 264 270 269 268 269 268 267 263 252 243 236 231 231 230 230 230 233 234 236 239 239 237 239 240 242 243 245 244 251 263 270 271 277 285 299 310
224 254 254 62 117 253 214 167 279 234 202 243 270 273 280 286 288 280 277 275 266 256 245 237 229 230 229 228 229 232 234 234 233 233 235 237 237 238 239 240 242 252 263 268 265 268 276 292 301
171 77 306 304 167 246 162 185 243 286 17 219 263 297 291 291 289 290 283 275 269 257 244 237 230 227 227 226 228 231 232 233 235 237 238 235 234 236 238 237 241 251 260 265 262 269 277 285 291
208 176 184 256 233 278 27 242 248 287 326 294 272 272 279 288 292 293 296 289 273 261 245 236 230 226 226 225 227 229 230 231 232 234 233 234 235 237 233 233 240 248 254 264 264 273 280 287 291
311 206 229 254 271 275 266 273 293 274 277 296 286 285 285 297 308 308 305 302 279 263 248 236 231 228 226 224 225 226 227 228 229 229 228 229 230 228 228 233 238 247 255 264 267 275 283 288 290
277 256 303 295 283 270 265 251 258 303 302 346 359 348 343 341 334 331 322 305 282 267 252 241 235 230 227 223 224 225 226 226 226 224 226 225 226 225 229 233 240 249 258 265 270 279 286 288 293
316 302 274 290 249 273 275 266 40 62 354 335 324 321 324 332 339 341 337 318 301 271 254 242 235 227 225 223 222 222 223 223 222 222 222 223 222 224 230 234 241 251 259 266 274 281 288 292 296
261 271 282 277 320 304 288 265 356 336 326 326 322 321 326 326 328 331 340 331 316 283 257 245 235 229 226 223 221 221 222 221 220 219 220 219 220 223 229 233 242 252 260 267 274 285 291 296 298
Wind_Speed_850mb
4 3 4 4 7 9 1 6 5 8 3 6 17 10 9 5 6 6 22 28 19 13 4 4 5 8 8 10 14 16 18 18 18 17 17 15 16 13 13 13 11 11 10 11 13 14 10 9 8
3 4 5 6 8 6 7 5 10 11 9 26 23 19 5 2 8 14 22 31 22 13 6 2 5 9 12 14 16 19 19 18 17 16 15 16 15 14 11 10 10 9 8 8 9 9 11 10 7
3 4 2 8 6 7 9 7 9 16 36 11 9 5 9 10 12 26 26 32 21 12 9 6 9 13 17 21 22 20 17 15 14 14 14 13 12 12 11 10 9 8 7 6 7 8 8 8 8
1 2 8 8 5 6 6 9 14 28 14 8 12 7 10 20 19 22 29 26 21 13 7 9 17 21 24 26 24 19 15 15 14 11 10 7 8 8 7 8 9 8 7 6 6 8 9 8 7
1 2 7 5 5 5 5 10 41 13 6 12 19 12 8 25 24 26 31 26 20 13 9 14 23 28 29 27 23 18 16 14 8 6 5 7 8 6 5 2 2 4 9 8 7 9 11 10 8
1 4 7 4 7 5 6 18 34 15 11 14 9 19 12 22 30 33 33 28 22 15 14 23 29 32 31 27 23 19 14 9 5 2 4 6 8 8 10 10 8 9 7 8 12 12 8 11 12
6 7 8 9 6 6 8 24 16 20 15 14 10 15 10 31 34 36 35 29 24 18 23 33 35 36 33 29 25 20 12 6 2 5 8 9 12 14 14 17 17 17 14 11 12 10 9 11 15
3 9 7 6 8 10 7 21 13 28 17 13 19 13 12 40 43 41 37 32 27 24 31 37 40 39 36 33 27 20 12 5 4 7 10 11 13 15 15 18 18 20 15 11 10 9 9 8 11
5 7 6 10 13 11 12 13 16 15 14 27 31 23 17 35 48 48 46 42 37 35 38 41 43 43 41 37 30 21 13 8 7 7 9 11 13 16 17 18 19 18 17 15 13 12 8 6 6
7 7 16 11 10 9 10 21 27 13 17 23 33 41 28 41 54 58 59 57 51 46 47 45 47 47 45 41 34 25 17 12 10 8 9 13 16 17 17 17 18 15 14 14 15 15 14 13 11
7 11 8 9 19 14 8 14 22 20 9 35 50 59 44 49 60 62 61 59 55 49 51 48 50 49 48 43 37 28 21 16 14 12 12 16 18 20 19 16 15 13 11 11 11 12 13 13 15
4 15 13 7 14 8 8 8 17 44 51 33 58 47 55 60 67 69 67 63 61 58 55 52 51 52 50 46 41 33 27 23 19 17 16 19 21 21 20 18 15 13 10 9 9 11 12 12 11
7 8 13 28 22 21 15 22 26 40 63 56 39 41 53 66 71 73 69 64 63 63 59 58 55 54 53 51 46 39 34 30 26 22 21 23 22 22 22 21 19 17 15 12 11 11 12 14 14
8 14 25 18 24 17 11 17 15 18 50 58 56 55 55 66 74 78 81 75 71 66 63 60 60 58 56 56 52 46 42 38 32 28 25 25 23 23 23 23 21 19 17 16 15 15 14 13 15
14 11 13 12 11 12 6 20 31 53 59 51 55 65 63 67 75 85 81 80 76 75 66 66 62 61 61 60 58 54 50 46 39 33 29 26 25 25 25 25 22 20 18 16 16 18 18 17 16
8 4 6 7 7 10 17 29 26 31 49 70 72 66 68 73 78 80 86 83 83 79 74 69 69 66 65 63 62 59 55 51 43 37 32 29 26 27 27 27 24 22 19 17 17 17 18 20 20
11 10 10 17 21 5 15 17 17 22 34 57 66 78 77 78 83 90 88 86 87 83 82 79 76 73 70 68 67 64 60 55 47 41 35 31 29 28 28 27 25 23 21 19 19 21 21 22 23
13 10 10 12 6 5 13 31 35 49 32 40 56 65 75 85 90 87 91 92 90 90 88 85 81 78 73 70 69 67 63 59 52 45 38 34 31 30 29 28 26 24 22 21 20 21 22 25 30
4 6 13 11 9 9 16 33 36 55 34 52 70 71 77 87 83 87 89 94 96 98 97 95 93 86 82 80 77 74 71 63 56 48 42 38 34 33 32 29 26 25 22 20 21 22 24 25 32
13 15 25 16 14 14 19 42 33 32 32 55 70 79 93 95 91 91 88 92 101 102 100 98 100 96 91 86 80 75 68 63 54 49 46 41 38 35 33 30 28 25 22 22 22 23 25 26 29
16 14 25 27 20 14 14 53 25 22 45 45 67 87 95 95 100 99 98 98 96 108 109 106 103 103 98 90 82 77 68 63 61 60 53 45 40 38 35 32 30 27 23 22 22 23 23 26 25
19 21 28 20 4 18 7 35 7 13 25 14 50 72 87 94 100 102 95 93 98 104 113 113 108 108 103 96 90 86 81 75 69 59 48 45 43 41 37 34 31 27 25 24 23 22 22 23 25
20 13 14 12 10 9 10 7 34 8 10 18 23 63 72 78 81 88 90 90 93 93 106 116 114 112 108 102 96 87 80 72 62 54 50 50 47 43 39 35 31 28 27 25 24 23 21 21 24
2 3 2 8 8 13 17 15 54 10 16 14 20 47 61 66 65 64 68 67 76 81 92 108 120 116 114 107 98 92 83 74 69 62 56 53 49 45 40 36 32 30 28 26 25 23 23 23 27
8 9 9 7 3 22 19 18 55 10 4 11 20 61 70 66 70 72 57 60 69 81 87 94 111 124 121 110 101 94 84 76 72 64 57 54 51 47 41 37 33 30 27 25 25 26 27 28 33
6 15 10 12 9 14 5 18 18 5 18 24 38 51 61 69 79 81 67 62 58 61 74 84 100 120 120 109 103 94 84 79 73 64 56 52 48 39 36 36 33 29 28 26 27 29 31 34 39
6 5 12 22 43 24 28 34 28 20 21 23 45 63 68 73 79 80 74 57 52 52 63 78 89 100 110 110 103 94 86 81 73 63 56 50 44 40 39 37 33 29 29 28 30 33 36 38 39
9 6 12 6 18 39 23 15 24 27 32 37 41 57 71 83 91 90 83 56 49 55 60 69 77 84 95 107 104 94 86 79 70 62 59 52 45 41 39 37 33 31 31 31 33 36 36 40 43
24 26 14 12 16 17 21 18 6 15 22 36 39 65 57 69 82 90 78 57 48 47 60 65 71 79 89 100 102 95 87 78 69 65 58 51 45 42 38 35 33 32 32 31 35 36 38 44 49
29 36 13 8 13 11 14 19 11 36 50 69 69 71 102 92 71 85 85 71 67 52 51 65 73 76 80 88 98 96 82 76 71 67 60 51 48 43 35 33 34 33 32 32 34 37 41 48 51
Wind_Direction_850mb
353 80 126 126 57 66 161 217 143 150 198 187 144 169 181 102 167 200 160 170 161 174 141 72 101 136 129 127 123 112 112 115 110 107 105 106 107 107 107 101 91 74 73 79 98 122 125 101 87
4 111 123 96 86 67 263 240 191 195 151 128 116 120 121 224 162 152 148 168 165 171 155 149 154 152 154 143 133 132 131 127 123 117 110 107 109 107 114 116 118 115 105 94 103 112 132 131 120
43 100 150 94 107 175 211 208 164 152 139 145 132 183 164 172 175 160 154 153 163 175 178 209 171 163 159 155 156 153 141 129 121 123 121 112 105 112 117 118 121 125 130 134 131 133 142 144 154
13 119 63 86 221 244 197 192 158 149 197 218 192 152 164 166 173 176 165 166 172 176 220 221 175 167 169 169 169 158 151 143 142 135 108 114 107 101 110 137 141 153 158 168 174 169 155 164 168
342 90 61 78 266 265 253 183 163 160 187 178 175 181 193 185 186 183 182 181 189 205 225 193 179 177 177 178 174 166 160 157 153 95 67 28 31 29 11 1 247 201 208 189 194 197 199 172 171
195 97 76 205 250 263 255 184 174 193 181 172 192 154 184 193 194 186 190 192 197 223 224 189 186 182 185 188 181 173 166 155 121 53 16 347 343 344 341 323 313 291 280 251 245 241 219 217 195
115 90 198 184 245 305 214 173 186 190 181 217 194 149 207 192 185 192 195 201 210 214 204 191 187 189 194 194 186 180 176 173 245 309 321 323 321 325 321 317 322 319 310 297 278 271 247 231 225
107 91 134 216 201 252 207 177 206 189 205 194 193 204 211 201 189 191 196 203 212 206 203 200 197 198 202 200 190 188 190 208 281 310 316 316 316 315 313 310 315 313 312 309 296 291 272 262 225
119 65 220 218 162 234 187 188 194 212 192 191 202 224 229 195 192 194 197 201 207 204 204 205 205 202 204 202 196 195 207 233 272 303 318 319 320 319 315 311 312 301 304 307 305 306 299 283 278
111 131 218 211 198 218 217 203 189 176 204 215 223 226 221 201 199 203 208 211 212 213 206 206 208 207 206 203 203 206 217 237 259 284 310 324 324 321 317 314 312 311 305 301 301 303 299 289 271
162 198 211 249 233 242 234 225 194 177 221 218 224 230 217 209 208 212 216 224 225 219 212 209 209 211 211 210 212 217 226 240 260 276 300 316 322 322 318 315 313 307 306 304 305 304 296 283 273
250 240 221 264 238 233 223 218 205 208 222 242 242 248 226 215 215 218 220 223 223 222 218 214 214 215 214 214 216 223 233 239 252 265 290 310 315 311 306 303 297 294 293 289 292 301 310 312 303
218 258 249 244 256 255 256 238 234 237 238 242 245 240 233 227 227 227 230 228 225 223 220 219 219 218 217 219 220 225 236 241 248 261 283 297 302 301 299 296 292 289 289 289 290 294 297 301 303
306 279 266 275 263 254 252 264 254 252 247 248 249 248 240 236 232 228 224 226 227 226 226 224 224 224 223 223 225 233 241 243 248 258 273 286 293 295 293 291 287 283 282 286 293 296 296 297 303
301 322 319 253 239 244 240 286 238 253 256 254 247 247 244 240 232 233 232 228 232 231 228 227 228 228 228 230 234 238 243 243 246 255 268 279 287 291 291 288 281 277 277 284 292 298 305 308 305
356 29 313 300 185 251 160 261 271 271 253 250 249 247 240 239 240 240 232 231 230 230 231 229 229 230 232 235 238 240 240 241 245 253 264 273 281 285 286 284 279 276 275 279 286 288 294 302 305
2 264 242 311 208 162 193 262 271 259 246 251 252 248 244 244 240 237 235 236 235 234 232 230 230 232 232 234 236 237 237 240 243 250 259 267 274 277 278 277 274 271 272 278 286 294 304 311 311
224 236 261 254 327 232 258 257 270 267 271 267 266 259 251 248 248 246 243 239 238 235 234 233 233 231 231 232 231 231 233 237 241 248 255 260 266 270 270 269 265 264 268 280 292 301 313 320 319
273 240 269 262 276 256 248 258 266 274 249 254 260 263 259 253 255 250 245 240 237 235 233 232 231 231 229 229 227 228 234 237 241 246 251 255 259 262 264 265 263 262 265 280 292 304 313 324 324
257 265 270 278 244 201 270 270 255 261 250 245 252 258 261 262 258 252 248 240 236 236 235 231 229 230 233 233 234 235 238 238 241 244 247 250 253 255 258 261 261 262 266 282 292 302 313 324 330
241 245 264 262 317 237 283 280 255 239 257 248 247 255 262 263 264 260 253 248 239 235 236 233 229 230 231 232 230 231 230 232 233 237 243 248 249 250 253 254 255 256 262 279 287 295 307 317 327
268 219 242 256 171 275 118 292 282 282 256 245 240 248 258 263 264 264 260 256 251 243 237 235 232 231 230 230 229 232 235 237 240 244 245 244 244 246 248 248 250 251 263 274 277 286 298 307 318
235 203 206 214 210 342 183 250 288 45 277 265 264 264 270 269 268 269 268 267 263 252 243 236 231 231 230 230 230 233 234 236 239 239 237 239 240 242 243 245 244 251 263 270 271 277 285 299 310
224 254 254 62 117 253 214 167 279 234 202 243 270 273 280 286 288 280 277 275 266 256 245 237 229 230 229 228 229 232 234 234 233 233 235 237 237 238 239 240 242 252 263 268 265 268 276 292 301
171 77 306 304 167 246 162 185 243 286 17 219 263 297 291 291 289 290 283 275 269 257 244 237 230 227 227 226 228 231 232 233 235 237 238 235 234 236 238 237 241 251 260 265 262 269 277 285 291
208 176 184 256 233 278 27 242 248 287 326 294 272 272 279 288 292 293 296 289 273 261 245 236 230 226 226 225 227 229 230 231 232 234 233 234 235 237 233 233 240 248 254 264 264 273 280 287 291
311 206 229 254 271 275 266 273 293 274 277 296 286 285 285 297 308 308 305 302 279 263 248 236 231 228 226 224 225 226 227 228 229 229 228 229 230 228 228 233 238 247 255 264 267 275 283 288 290
277 256 303 295 283 270 265 251 258 303 302 346 359 348 343 341 334 331 322 305 282 267 252 241 235 230 227 223 224 225 226 226 226 224 226 225 226 225 229 233 240 249 258 265 270 279 286 288 293
316 302 274 290 249 273 275 266 40 62 354 335 324 321 324 332 339 341 337 318 301 271 254 242 235 227 225 223 222 222 223 223 222 222 222 223 222 224 230 234 241 251 259 266 274 281 288 292 296
261 271 282 277 320 304 288 265 356 336 326 326 322 321 326 326 328 331 340 331 316 283 257 245 235 229 226 223 221 221 222 221 220 219 220 219 220 223 229 233 242 252 260 267 274 285 291 296 298